Regional Weather Roundup
Issued by NWS

Home | Current Version | Previous Version | Text Only | Print | Product List | Glossary Off
Versions: 1 2 3 4 5 6 7 8 9 10 11 12 13 14 15 16 17 18 19 20 21 22 23 24 25 26 27 28 29 30 31 32 33 34 35 36 37 38 39 40 41 42 43 44 45 46 47 48 49 50

000
ASUS43 KOAX 032110
RWRNE

WEATHER ROUNDUP FOR NEBRASKA
NATIONAL WEATHER SERVICE OMAHA NE
400 PM CDT TUE MAY 03 2016

NOTES: SATELLITE DATA IS BEING USED TO AUGMENT CLOUD COVER ABOVE
       12000 FEET.
       "FAIR" INDICATES FEW OR NO CLOUDS BELOW 12,000 FEET WITH NO
       SIGNIFICANT WEATHER AND/OR OBSTRUCTIONS TO VISIBILITY.

  * THESE STATIONS DO NOT REPORT WEATHER SUCH AS RAIN...SNOW OR FOG.

NEZ001>004-019>022-054>056-032200-
NEBRASKA PANHANDLE

CITY           SKY/WX    TMP DP  RH WIND       PRES   REMARKS
SCOTTSBLUFF    SUNNY     72  33  24 N16G23    30.12S
ALLIANCE       SUNNY     69  29  22 N17G24    30.11S
CHADRON        SUNNY     72  36  26 MISG      30.09F
KIMBALL        MOSUNNY   67  33  28 N20G26    30.16S
SIDNEY         SUNNY     69  28  21 N16G23    30.13F
$$

NEZ057>060-069>072-079>082-032200-
SOUTHWEST NEBRASKA

CITY           SKY/WX    TMP DP  RH WIND       PRES   REMARKS
NORTH PLATTE   SUNNY     68  41  37 W10G17    30.05F
IMPERIAL       SUNNY     66  35  31 N8        30.09F
LEXINGTON      PTSUNNY   67  43  42 NW8       30.05F
MCCOOK         SUNNY     67  43  41 N12       30.07F
OGALLALA       SUNNY     67  33  28 NW8G18    30.09F
$$

NEZ005>010-023>029-035>040-094-032200-
NORTH CENTRAL NEBRASKA

CITY           SKY/WX    TMP DP  RH WIND       PRES   REMARKS
VALENTINE      SUNNY     71  33  24 N12G23    30.03F
AINSWORTH      SUNNY     67  39  35 N13G21    30.03S
BROKEN BOW     SUNNY     67  40  37 NW9       30.03F
O`NEILL        SUNNY     69  38  32 W18G24    30.00F
ORD            SUNNY     68  43  40 NW12      30.00F
THEDFORD       SUNNY     69  39  34 N14G20    30.05F
$$

NEZ041-046>049-061>064-073>077-083>087-032200-
SOUTH CENTRAL NEBRASKA

CITY           SKY/WX    TMP DP  RH WIND       PRES   REMARKS
GRAND ISLAND   MOSUNNY   69  37  30 W14G21    30.02F
AURORA         MOSUNNY   68  38  33 NW13      30.01F
HASTINGS       MOSUNNY   68  39  34 NW13      30.02F
HEBRON         MOSUNNY   70  39  32 NW7       30.01
HOLDREGE       SUNNY     66  39  37 CALM      30.04F
KEARNEY *      MOSUNNY   66  39  37 W8        30.04F
YORK           MOSUNNY   66  39  37 NW7       30.01F
$$

NEZ011>018-030>034-042>045-032200-
NORTHEAST NEBRASKA

CITY           SKY/WX    TMP DP  RH WIND       PRES   REMARKS
NORFOLK        MOSUNNY   69  41  36 W16G25    29.96F
ALBION         MOSUNNY   68  43  40 NW12G20   29.99F
BLAIR          PTSUNNY   70  42  37 W13G21    29.96F
COLUMBUS *     PTSUNNY   70  39  32 W16       29.98F
FREMONT        MOSUNNY   69  42  38 W12G20    29.96F
TEKAMAH        PTSUNNY   69  45  41 W15       29.94F
WAYNE          SUNNY     69  45  41 W16G24    29.95F
$$

NEZ050>053-065>068-078-088>093-032200-
SOUTHEAST NEBRASKA

CITY           SKY/WX    TMP DP  RH WIND       PRES   REMARKS
LINCOLN        MOSUNNY   72  40  31 W9        29.99F
OMAHA EPPLEY   PTSUNNY   71  41  33 W15G24    29.95F
BEATRICE       MOSUNNY   68  40  34 W9        29.99F
FALLS CITY     MOSUNNY   69  43  38 NW10      29.98F
NEBRASKA CITY  MOSUNNY   68  40  36 W7        29.98F
PLATTSMOUTH    PTSUNNY   70  41  35 W9        29.97F
$$

NEZ044-045-051>053-067-032200-
OMAHA AREA

CITY           SKY/WX    TMP DP  RH WIND       PRES   REMARKS
OMAHA EPPLEY   PTSUNNY   71  41  33 W15G24    29.95F
BLAIR          PTSUNNY   70  42  37 W13G21    29.96F
FREMONT        MOSUNNY   69  42  38 W12G20    29.96F
MILLARD        CLOUDY    69  42  37 W13G21    29.96F
OFFUTT AFB     MOSUNNY   69  43  38 W9        29.95F
PLATTSMOUTH    PTSUNNY   70  41  35 W9        29.97F
WAHOO          MOCLDY    69  41  36 W14G21    29.97F
$$



USA.gov is the U.S. government's official web portal to all federal, state and local government web resources and services.